EW2755 Weather Reports


Display with metric or nautical units.
time (UTC)temp
F
wind
direction
speed
MPH
gust
MPH
rain 1hr
in
rain 24hr
in
rain mn
in
humidity
%
barometer
mb
20260504184555 77 0 1.0 6.0 0.00 0.00 0.00 44 1008.5
20260504183043 76 0 0.0 3.0 0.00 0.00 0.00 47 1008.7
20260504181548 77 0 0.0 4.0 0.00 0.00 0.00 38 1009.0
20260504180052 75 0 0.0 5.0 0.00 0.00 0.00 38 1009.1
20260504174545 76 0 0.0 6.0 0.00 0.00 0.00 39 1009.2
20260504173054 75 0 0.0 4.0 0.00 0.00 0.00 40 1009.2
20260504171543 73 0 0.0 3.0 0.00 0.00 0.00 41 1009.2
20260504081548 60 0 0.0 0.0 0.00 0.00 0.00 56 1008.7
20260504044544 72 0 0.0 7.0 0.00 0.00 0.00 39 1008.0
20260504043041 72 215 2.0 8.0 0.00 0.00 0.00 38 1008.0
20260504041549 72 0 1.0 4.0 0.00 0.00 0.00 40 1007.9
20260504040045 73 0 0.0 6.0 0.00 0.00 0.00 38 1007.8
20260504034546 74 231 0.0 7.0 0.00 0.00 0.00 37 1007.5
20260504033051 75 0 4.0 9.0 0.00 0.00 0.00 36 1007.5
20260504031543 75 0 3.0 9.0 0.00 0.00 0.00 37 1007.2
20260504030041 76 193 3.0 8.0 0.00 0.00 0.00 36 1007.1
20260504024556 77 184 1.0 7.0 0.00 0.00 0.00 36 1007.1
20260504023046 79 216 2.0 5.0 0.00 0.00 0.00 34 1007.0
20260504021550 81 217 1.0 5.0 0.00 0.00 0.00 34 1007.1
20260504020048 83 0 0.0 3.0 0.00 0.00 0.00 32 1007.1
20260504014542 84 0 0.0 2.0 0.00 0.00 0.00 27 1007.2
20260504013048 85 0 0.0 4.0 0.00 0.00 0.00 27 1007.4
20260504011544 86 0 0.0 1.0 0.00 0.00 0.00 26 1007.6
20260504010044 86 0 0.0 3.0 0.00 0.00 0.00 26 1007.6
20260504004558 86 0 0.0 2.0 0.00 0.00 0.00 25 1007.9
20260504003042 87 130 0.0 2.0 0.00 0.00 0.00 25 1007.9
20260504001543 87 0 0.0 3.0 0.00 0.00 0.00 24 1008.2
20260504000043 87 0 0.0 4.0 0.00 0.00 0.00 24 1008.4
20260503234546 87 0 0.0 4.0 0.00 0.00 0.00 24 1008.6
20260503233042 87 0 0.0 4.0 0.00 0.00 0.00 25 1008.8
20260503231549 87 0 0.0 1.0 0.00 0.00 0.00 24 1009.1
20260503230040 87 0 0.0 5.0 0.00 0.00 0.00 24 1009.3
20260503224542 86 0 0.0 2.0 0.00 0.00 0.00 24 1009.6
20260503223046 86 0 0.0 4.0 0.00 0.00 0.00 24 1009.9
20260503221551 87 0 0.0 4.0 0.00 0.00 0.00 23 1010.0
20260503220046 87 0 0.0 6.0 0.00 0.00 0.00 23 1010.3
20260503214541 86 172 0.0 5.0 0.00 0.00 0.00 23 1010.6
20260503213044 87 0 0.0 3.0 0.00 0.00 0.00 24 1010.7
20260503211546 86 0 0.0 8.0 0.00 0.00 0.00 23 1010.8
20260503210043 85 0 0.0 5.0 0.00 0.00 0.00 25 1011.0
20260503204541 85 28 0.0 5.0 0.00 0.00 0.00 26 1011.4
20260503203042 84 0 1.0 5.0 0.00 0.00 0.00 28 1011.7
20260503201542 84 0 1.0 4.0 0.00 0.00 0.00 27 1011.7
20260503200048 82 83 1.0 5.0 0.00 0.00 0.00 30 1012.0
20260503194550 82 0 0.0 3.0 0.00 0.00 0.00 30 1012.3
20260503193051 80 0 0.0 4.0 0.00 0.00 0.00 32 1012.8
20260503191540 80 71 1.0 4.0 0.00 0.00 0.00 34 1012.9
20260503190044 78 74 0.0 4.0 0.00 0.00 0.00 37 1013.1